Location: Edmondson
(35.1065°N, 90.3104°W)
Time: 17:29:36
(UTC+00:00)

Envisat - Pass Details

Date: 12 October 2024
Orbit: 761 x 763 km, 98.3° (Epoch: 05 November)

Event Time Altitude Azimuth Distance (km) Brightness Sun altitude
Rises 08:48:29 0° 16° (NNE) 3,230 6.7 -40.4°
Reaches altitude 10° 08:50:49 10° 21° (NNE) 2,300 5.8 -39.9°
Enters shadow 08:50:55 11° 21° (NNE) 2,265 5.8 -39.9°
